This demonstration page uses our WeatherBlox Daily Observations layout. Learn more.

Left ArrowRight Arrow

Hourly Observations for January 27, 2019

Temp ( °F °C ) Dew Point ( °F °C ) Humidity (%) Winds ( mph kmh ) Pressure ( in mb ) Visibility ( mi km ) Precip ( " mm )
12:59 am 00:59 Clear 32 0 26 -3.3 79 79 Calm 30.19 1022 10 16 0.00 0.00
1:59 am 01:59 Clear 30 -1.1 25 -3.9 82 82 Calm 30.19 1022 10 16 0.00 0.00
2:59 am 02:59 Clear 30 -1.1 25 -3.9 82 82 SSW 3 6 30.18 1022 10 16 0.00 0.00
3:59 am 03:59 Clear 31 -0.6 26 -3.3 82 82 Calm 30.16 1022 10 16 0.00 0.00
4:59 am 04:59 Clear 32 0 26 -3.3 79 79 SSW 3 6 30.16 1021 10 16 0.00 0.00
5:59 am 05:59 Mostly Clear 32 0 26 -3.3 79 79 SSW 3 6 30.16 1021 10 16 0.00 0.00
6:59 am 06:59 Partly Cloudy 32 0 26 -3.3 79 79 S 5 7 30.16 1022 10 16 0.00 0.00
7:59 am 07:59 Mostly Cloudy 35 1.7 29 -1.7 78 78 VRB 3 6 30.17 1022 10 16 0.00 0.00
8:59 am 08:59 Mostly Cloudy 42 5.6 31 -0.6 65 65 VRB 3 6 30.17 1022 10 16 0.00 0.00
9:59 am 09:59 Partly Cloudy 48 8.9 29 -1.7 48 48 SSE 9 15 30.18 1022 10 16 0.00 0.00
10:59 am 10:59 Mostly Cloudy 51 10.6 25 -3.9 36 36 S 9 15 30.14 1021 10 16 0.00 0.00
11:59 am 11:59 Mostly Cloudy 52 11.1 22 -5.6 31 31 SSW 12 19 30.12 1020 10 16 0.00 0.00
12:59 pm 12:59 Mostly Cloudy 52 11.1 23 -5 32 32 S 10 17 30.08 1019 10 16 0.00 0.00
1:59 pm 13:59 Mostly Cloudy 52 11.1 25 -3.9 35 35 S 8 13 30.05 1018 10 16 0.00 0.00
2:59 pm 14:59 Mostly Cloudy 51 10.6 25 -3.9 36 36 S 12 19 30.03 1017 10 16 0.00 0.00
3:59 pm 15:59 Cloudy 50 10 26 -3.3 39 39 S 8 13 30.04 1017 10 16 0.00 0.00
4:59 pm 16:59 Cloudy 48 8.9 27 -2.8 44 44 S 8 13 30.04 1017 10 16 0.00 0.00
5:59 pm 17:59 Cloudy 47 8.3 26 -3.3 44 44 S 6 9 30.03 1017 10 16 0.00 0.00
7:59 pm 19:59 Cloudy 46 7.8 28 -2.2 50 50 SSW 7 11 30.06 1018 10 16 0.00 0.00
8:59 pm 20:59 Cloudy 45 7.2 29 -1.7 54 54 SSW 7 11 30.05 1018 10 16 0.00 0.00
9:59 pm 21:59 Cloudy 45 7.2 29 -1.7 54 54 SW 5 7 30.03 1017 10 16 0.00 0.00
10:59 pm 22:59 Cloudy 45 7.2 30 -1.1 56 56 SW 6 9 30.04 1017 10 16 0.00 0.00
11:59 pm 23:59 Cloudy 45 7.2 30 -1.1 56 56 W 6 9 30.02 1017 10 16 0.00 0.00

Powered by AerisWeather